Weather History for Fairbanks, AK

Change the Weather History Date:

Thursday, April 11, 2013

  Actual Average Record
Temperature  
Mean Temperature -2 °F 30 °F  
Max Temperature 16 °F 42 °F 63 °F (1921)
Min Temperature -21 °F 17 °F -32 °F (1911)
Degree Days  
Heating Degree Days 67 36  
Month to date heating degree days 594 435  
Since 1 July heating degree days 13351 12485  
Cooling Degree Days 0 0  
Month to date cooling degree days 0 0  
Year to date cooling degree days 0 0  
Moisture  
Dew Point -11 °F    
Average Humidity 62    
Maximum Humidity 87    
Minimum Humidity 35    
Precipitation  
Precipitation 0.00 in 0.00 in 0.10 in (1948)
Month to date precipitation 0.31 0.08  
Year to date precipitation 1.84 1.33  
Snow  
Snow 0.00 in 0.10 in 1.20 in (1966)
Month to date snowfall 5.4 1.4  
Since 1 July snowfall 62.1 62.6  
Snow Depth 23.00 in    
Sea Level Pressure  
Sea Level Pressure 30.17 in    
Wind  
Wind Speed 2 mph (SSW)    
Max Wind Speed 10 mph    
Max Gust Speed -    
Visibility 10 miles    
Events      
T = Trace of Precipitation, MM = Missing Value Source: NWS Daily Summary

Daily Weather History Graph

Daily Weather History Graph

Search for Another Location

Airport:

Trip Planner

Search our weather history database for the weather conditions in past years. The results will help you decide how hot, cold, wet, or windy it might be!

Date:

Astronomy

Apr. 11, 2013 Rise Set
Actual Time 6:29 AM AKDT 9:17 PM AKDT
Civil Twilight 5:34 AM AKDT 10:12 PM AKDT
Nautical Twilight 4:15 AM AKDT 11:33 PM AKDT
Astronomical Twilight 2:24 AM AKDT 1:19 AM AKDT
Moon 6:32 AM AKDT (4/11) 11:51 PM AKDT (4/11)
Length of Visible Light 16h 38m
Length of Day
14h 47m
New Moon, 2% of the Moon is Illuminated
Apr 11
New Moon
Apr 18
First Quarter
Apr 25
Full
May 2
Last Quarter
May 9
New

Hourly Weather History & Observations

Time (AKDT) Temp. Windchill Dew Point Humidity Pressure Visibility Wind Dir Wind Speed Gust Speed Precip Events Conditions
12:53 AM -11.0 °F - -17.0 °F 75% 30.02 in 10.0 mi Calm Calm - N/A   Scattered Clouds
1:53 AM -17.0 °F - -22.0 °F 78% 30.04 in 10.0 mi Calm Calm - N/A   Scattered Clouds
2:53 AM -16.1 °F -28.6 °F -22.0 °F 74% 30.06 in 10.0 mi NE 4.6 mph - N/A   Scattered Clouds
3:53 AM -18.9 °F -29.5 °F -24.0 °F 78% 30.08 in 10.0 mi NE 3.5 mph - N/A   Scattered Clouds
4:53 AM -17.0 °F - -22.0 °F 78% 30.10 in 10.0 mi Calm Calm - N/A   Scattered Clouds
5:53 AM -16.1 °F - -22.0 °F 74% 30.11 in 10.0 mi Calm Calm - N/A   Scattered Clouds
6:53 AM -18.0 °F - -24.0 °F 74% 30.13 in 10.0 mi Calm Calm - N/A   Mostly Cloudy
7:53 AM -15.0 °F - -20.0 °F 78% 30.14 in 10.0 mi Calm Calm - N/A   Mostly Cloudy
8:53 AM -11.0 °F -22.8 °F -16.1 °F 78% 30.16 in 10.0 mi NE 4.6 mph - N/A   Mostly Cloudy
9:53 AM -5.1 °F - -8.0 °F 87% 30.17 in 10.0 mi Calm Calm - N/A   Mostly Cloudy
10:53 AM -0.0 °F - -9.0 °F 66% 30.18 in 10.0 mi Calm Calm - N/A   Mostly Cloudy
11:53 AM 1.9 °F - -9.9 °F 58% 30.19 in 10.0 mi Calm Calm - N/A   Mostly Cloudy
12:53 PM 6.1 °F -0.9 °F -8.0 °F 53% 30.19 in 10.0 mi South 3.5 mph - N/A   Overcast
1:53 PM 9.0 °F 0.6 °F -5.1 °F 53% 30.20 in 10.0 mi South 4.6 mph - N/A   Overcast
2:53 PM 12.0 °F -1.3 °F -2.9 °F 51% 30.19 in 10.0 mi South 10.4 mph - N/A   Mostly Cloudy
3:53 PM 12.9 °F 0.7 °F -2.0 °F 51% 30.19 in 10.0 mi South 9.2 mph - N/A   Mostly Cloudy
4:53 PM 14.0 °F - -2.0 °F 49% 30.19 in 10.0 mi Calm Calm - N/A   Overcast
5:53 PM 15.1 °F 9.4 °F -5.1 °F 41% 30.19 in 10.0 mi WSW 3.5 mph - N/A   Overcast
6:53 PM 15.1 °F 5.2 °F -5.1 °F 41% 30.20 in 10.0 mi WNW 6.9 mph - N/A   Overcast
7:53 PM 14.0 °F 5.1 °F -4.0 °F 45% 30.21 in 10.0 mi West 5.8 mph - N/A   Overcast
8:53 PM 12.9 °F - -4.0 °F 47% 30.23 in 10.0 mi Calm Calm - N/A   Overcast
9:53 PM 10.0 °F - -2.9 °F 56% 30.25 in 10.0 mi Calm Calm - N/A   Overcast
10:53 PM 5.0 °F - -4.0 °F 66% 30.26 in 10.0 mi Calm Calm - N/A   Mostly Cloudy
11:53 PM 1.0 °F - -7.1 °F 69% 30.28 in 10.0 mi Calm Calm - N/A   Mostly Cloudy